This is the latest recevied weather packets stored in our database for station/object SQ3VAS-10. If no packets are shown the sender has not sent any weather packets the latest 10 day(s).
| Time | Temp. | Humidity | Pressure | Rain* | Wind** | Luminosity | Snow |
|---|---|---|---|---|---|---|---|
| 1778007936 | 15.56° C | 81% | 1009.3 hPa | - | - | - | - |
| 1778007363 | 16.11° C | 79% | 1009.2 hPa | - | - | - | - |
| 1778006792 | 16.11° C | 78% | 1009.2 hPa | - | - | - | - |
| 1778006219 | 16.11° C | 78% | 1009.4 hPa | - | - | - | - |
| 1778005648 | 16.11° C | 78% | 1009.3 hPa | - | - | - | - |
| 1778005075 | 16.67° C | 77% | 1009.2 hPa | - | - | - | - |
| 1778004504 | 16.67° C | 77% | 1009.3 hPa | - | - | - | - |
| 1778003932 | 16.67° C | 77% | 1009.2 hPa | - | - | - | - |
| 1778003359 | 16.67° C | 76% | 1009.1 hPa | - | - | - | - |
| 1778002788 | 17.22° C | 75% | 1009.2 hPa | - | - | - | - |
| 1778002215 | 17.22° C | 76% | 1009.1 hPa | - | - | - | - |
| 1778001642 | 17.78° C | 73% | 1009.1 hPa | - | - | - | - |
| 1778001071 | 17.78° C | 72% | 1009.1 hPa | - | - | - | - |
| 1778000498 | 18.33° C | 71% | 1009.1 hPa | - | - | - | - |
| 1777999926 | 18.33° C | 70% | 1009.1 hPa | - | - | - | - |
| 1777999353 | 18.33° C | 69% | 1009.2 hPa | - | - | - | - |
| 1777998779 | 18.89° C | 68% | 1009.2 hPa | - | - | - | - |
| 1777998207 | 18.89° C | 68% | 1009.3 hPa | - | - | - | - |
| 1777997635 | 18.89° C | 67% | 1009.3 hPa | - | - | - | - |
| 1777997063 | 19.44° C | 67% | 1009.3 hPa | - | - | - | - |
| 1777996491 | 19.44° C | 66% | 1009.3 hPa | - | - | - | - |
| 1777995919 | 20° C | 66% | 1009.3 hPa | - | - | - | - |
| 1777995345 | 20° C | 67% | 1009.4 hPa | - | - | - | - |
| 1777994773 | 19.44° C | 67% | 1009.4 hPa | - | - | - | - |
| 1777994201 | 19.44° C | 67% | 1009.4 hPa | - | - | - | - |
* Rain since midnight (hover to see other rain measurements)
** Current wind speed in m/s (hover to see current wind gust speed)